Regional Weather Roundup
Issued by NWS Upton, NY

Current Version | Previous Version | Text Only | Print | Product List | Glossary Off
Versions: 1 2 3 4 5 6 7 8 9 10 11 12 13 14 15 16 17 18 19 20 21 22 23 24 25 26 27 28 29 30 31 32 33 34 35 36 37 38 39 40 41 42 43 44 45 46 47 48 49 50
000 ASUS41 KOKX 251705 RWROKX REGIONAL WEATHER ROUNDUP NATIONAL WEATHER SERVICE NEW YORK NY 1200 PM EST TUE NOV 25 2014 NOTE: "FAIR" INDICATES FEW OR NO CLOUDS BELOW 12,000 FEET WITH NO SIGNIFICANT WEATHER AND/OR OBSTRUCTIONS TO VISIBILITY. NYZ071-072-176-178-NJZ106-104-251800- NEW YORK CITY METRO AREA CITY SKY/WX TMP DP RH WIND PRES REMARKS CENTRAL PARK CLOUDY 55 25 31 W9G20 30.01F LAGUARDIA APRT CLOUDY 54 27 35 W10 29.98F KENNEDY INTL CLOUDY 56 25 30 W15 29.99F NEWARK/LIBERTY CLOUDY 55 27 34 W16 29.99F BRNX BOT. GARD N/A N/A N/A N/A W16 29.98F TETERBORO CLOUDY 54 27 35 W10G17 29.98F $$ NYZ177-179-078>081-251800- LONG ISLAND NEW YORK CITY SKY/WX TMP DP RH WIND PRES REMARKS FARMINGDALE NOT AVBL ISLIP CLOUDY 57 32 38 NW9 29.96F SHIRLEY CLOUDY 57 37 47 NW8 29.97F WESTHAMPTON CLOUDY 58 38 47 W10 29.97F MONTAUK POINT N/A 58 41 53 W8G17 29.97S $$ NYZ052-065-067-251800- HUDSON VALLEY CITY SKY/WX TMP DP RH WIND PRES REMARKS WHITE PLAINS CLOUDY 53 25 33 W13 29.96F NEWBURGH NOT AVBL MONTGOMERY CLOUDY 51 27 39 W13 29.96F POUGHKEEPSIE CLOUDY 53 28 38 SW10 29.97S ALBANY CLOUDY 52 25 35 W12G18 29.93F $$ NJZ001-105-106-008-010-013-015-019>022-104-251800- NEW JERSEY CITY SKY/WX TMP DP RH WIND PRES REMARKS NEWARK/LIBERTY CLOUDY 55 27 34 W16 29.99F TETERBORO CLOUDY 54 27 35 W10G17 29.98F CALDWELL CLOUDY 53 25 33 W10 30.00F MORRISTOWN CLOUDY 54 28 37 W9G17 30.00F SOMERVILLE CLOUDY 54 28 36 W8 29.99F SUSSEX CLOUDY 51 28 41 W12 29.99F ANDOVER N/A 50 27 40 W8 29.99F TRENTON CLOUDY 53 28 38 W12G24 30.02S MILLVILLE CLOUDY 55 34 45 NW9G18 30.05R ATLANTIC CITY CLOUDY 56 36 47 NW12 30.03R WRIGHTSTOWN CLOUDY 54 31 42 NW8 30.01R TOMS RIVER CLOUDY 54 34 47 NW7 30.03R BELMAR CLOUDY 55 30 38 W14 30.01R $$ PAZ047>061-062-071-251800- EASTERN PENNSYLVANIA CITY SKY/WX TMP DP RH WIND PRES REMARKS PHILADELPHIA CLOUDY 56 30 37 NW10G18 30.05S ALLENTOWN CLOUDY 52 29 41 W12 30.02F SCRANTON CLOUDY 48 27 44 SW15G22 29.99S $$ CTZ002-004>006-009-010-012-RIZ004-006-007-MAZ004-011-015-251800- SOUTHERN NEW ENGLAND IN CT CITY SKY/WX TMP DP RH WIND PRES REMARKS BRADLEY INTL CLOUDY 58 27 30 SW9 29.91R HARTFORD CLOUDY 57 26 30 SW15 29.94R DANBURY CLOUDY 53 24 32 W10 29.97S WTRBRY/OXFORD CLOUDY 54 27 35 W6G16 29.96 BRIDGEPORT CLOUDY 57 30 35 NW13 29.95F MERIDEN CLOUDY 57 25 29 NW8 29.95S NEW HAVEN CLOUDY 59 27 29 W9G23 29.96S CHESTER FAIR 55 28 35 W7 29.95F GROTON CLOUDY 56 44 64 SW10 29.94S WILLIMANTIC CLOUDY 59 27 29 W10 29.94R IN RI CITY SKY/WX TMP DP RH WIND PRES REMARKS PROVIDENCE CLOUDY 61 34 36 W10 29.92S BLOCK ISLAND CLOUDY 57 43 58 W15G22 29.96R WESTERLY CLOUDY 57 44 62 SW8 29.95R IN MA CITY SKY/WX TMP DP RH WIND PRES REMARKS BOSTON CLOUDY 62 38 40 SW16G26 29.88R WORCESTER CLOUDY 55 30 38 W20 29.89R WESTFIELD CLOUDY 57 29 34 SW9 29.91R PROVINCETOWN CLOUDY 57 52 82 S13 29.91S NANTUCKET CLOUDY 57 54 89 SW10 29.94R FOG $$ ANZ330-335-338-340-345-350-353-355-251800- COASTAL MARINE OBSERVATIONS STATION/POSITION TIME SKY/WX TEMP WIND PRES VSBY WAVE AIR SEA DIR/SP/G HT/PER (UTC) (F) (DEG/KT/KT) (MB) (MI) (FT/S) NY HARB ENTRANCE 1700 53 55 280/ 17/ 19 1016.2 6/10 4S FIRE IS 1700 53 N/A 7/10 20S FIRE ISLAND 1700 55 55 290/ 21/ 25 1014.5 7/10 23SW MTP 1700 N/A 8/10 HUDSON CANYON 1700 59 60 300/ 12/ 14 1015.2 8/10 EXECUTION ROCKS 1700 54 48 290/ 10/ 17 N/A WESTERN LI SOUND 1700 54 280/ 16/ 19 N/A 1/ 3 CENTRAL LI SOUND 1600 53 51 260/ 12/ 16 N/A 1 EASTERN LI SOUND 1600 56 53 260/ 14/ 17 N/A ROBBINS REEF 1700 53 300/ 19/ 22 1014.4 $$ >>>>>>>>>>>>>>>>>>>>>>>>>>>> KEY <<<<<<<<<<<<<<<<<<<<<<<<<<< > < > SKY/WX - SKY CONDITION/PRESENT WEATHER < > TMP - TEMPERATURE IN FAHRENHEIT < > DP - DEWPOINT IN FAHRENHEIT < > RH - RELATIVE HUMIDITY IN PERCENT < > WIND - DIRECTION AND SPEED IN MPH < > PRES - MEAN SEA LEVEL PRESSURE IN INCHES OF HG < > WCI - WIND CHILL INDEX < > VSB - VISIBILITY IN MILES < > HX - HEAT INDEX < > TC - TEMPERATURE IN CELSIUS < > VRB - VARIABLE WIND DIRECTION < > < >>>>>>>>>>>>>>>>>>>>>>>>>>>> KEY <<<<<<<<<<<<<<<<<<<<<<<<<<<

USA.gov is the U.S. government's official web portal to all federal, state and local government web resources and services.